RH
52 46 47 35 43 42 53 68 68 34 45 78 90 83 59 50 54 50 48 45 49 59 59 67 84 72 64 55 58 73 75 84 96 86 67 68 76 77 78 94 90 96 94 88
50 48 43 40 38 44 54 73 71 45 44 79 87 59 58 55 56 54 52 51 47 47 53 65 68 75 51 58 59 83 78 92 95 88 77 80 87 84 80 76 87 96 96 85
54 48 44 43 36 39 55 81 76 72 76 73 69 64 62 58 50 53 50 50 48 52 55 52 69 79 58 58 57 65 68 88 88 87 72 79 92 84 84 86 97 86 88 79
59 51 43 44 37 48 57 80 76 68 66 65 58 58 57 62 62 52 51 54 55 59 64 62 64 68 63 61 58 64 71 92 89 83 78 77 78 77 79 91 80 87 67 80
59 54 48 41 35 50 44 73 66 67 65 51 47 54 55 55 54 56 56 61 54 59 62 62 64 70 70 73 72 74 70 80 86 91 74 76 86 76 74 73 74 76 69 70
66 58 53 47 42 38 58 68 62 63 63 55 56 58 52 52 54 54 54 54 57 60 60 57 56 58 66 62 78 84 78 82 70 88 75 77 81 68 67 68 69 69 85 64
63 65 56 56 50 36 50 56 66 70 64 61 53 47 49 56 56 60 56 57 60 53 57 63 66 73 77 76 74 72 77 78 79 91 79 66 41 43 44 63 56 58 59 56
54 60 64 58 58 52 33 44 63 77 65 63 49 46 48 56 58 56 56 57 55 61 67 79 73 71 68 71 80 80 72 80 88 95 93 66 44 54 57 53 41 49 52 48
54 54 60 62 62 59 55 39 50 66 67 52 42 48 55 69 69 69 59 58 61 66 85 79 71 77 59 55 71 74 78 75 80 92 98 80 32 38 48 42 47 39 50 52
76 56 56 63 65 64 57 52 44 58 69 63 51 59 62 60 65 70 66 67 72 68 86 86 91 74 49 56 66 90 82 83 87 73 81 84 57 45 46 46 29 41 45 44
99 71 59 60 68 72 69 60 50 54 73 64 54 48 56 62 69 68 63 67 80 89 82 84 74 80 60 58 55 82 90 96 91 75 92 84 52 60 51 31 44 43 45 45
100 96 62 61 67 76 76 66 62 52 55 55 52 45 42 41 45 66 76 58 79 80 77 83 78 70 83 69 44 61 68 66 82 79 73 50 58 47 50 52 48 47 48 50
95 100 88 58 65 75 82 78 75 65 85 79 70 67 47 46 46 47 70 78 65 78 75 85 82 74 71 73 79 54 46 52 56 44 38 51 43 44 56 52 55 52 52 54
87 99 99 69 64 72 85 86 83 72 76 80 67 53 56 54 51 52 56 60 68 74 83 79 78 78 64 64 54 64 50 51 51 53 42 37 34 37 36 38 44 39 38 40
85 95 100 79 70 72 84 90 85 82 72 84 87 63 54 54 58 58 62 66 78 84 84 90 90 85 76 80 80 88 54 39 38 25 28 27 29 31 41 39 38 39 42 44
98 93 100 93 83 84 87 94 88 95 93 87 92 65 66 66 67 71 75 75 83 86 86 88 87 75 65 80 88 63 58 32 28 29 32 35 31 36 38 40 43 41 47 51
88 100 100 96 85 89 91 78 61 88 96 86 91 78 75 71 76 84 85 80 87 87 87 93 87 79 79 89 73 48 51 48 44 41 35 42 42 42 38 40 42 45 50 52
75 89 100 95 90 90 91 88 70 77 69 77 93 79 77 75 91 93 90 91 90 90 88 90 88 81 88 89 57 46 34 36 49 52 44 35 37 41 43 46 56 58 63 64
62 99 99 97 94 91 85 79 84 75 76 93 95 91 77 84 88 91 92 91 98 86 95 94 87 85 90 61 55 52 54 46 42 42 45 48 48 47 49 55 54 58 59 64
100 95 93 99 96 89 97 98 98 99 97 99 98 86 91 86 91 94 92 94 96 98 90 90 98 88 54 50 53 51 49 54 52 42 44 50 50 56 52 51 52 55 58 65
95 98 99 100 100 99 100 100 100 99 100 99 95 85 73 81 88 88 87 96 95 100 81 92 94 93 64 44 46 40 42 48 54 45 38 45 45 51 54 55 54 60 64 69
99 98 98 99 100 100 100 98 98 99 92 91 98 91 80 83 82 85 95 95 96 99 85 97 98 70 54 52 51 56 57 51 54 46 49 54 55 57 60 60 62 62 62 63
98 100 100 100 98 98 97 95 97 100 94 96 96 95 86 89 89 88 89 98 96 83 99 96 81 71 48 54 56 56 55 55 53 52 50 52 54 56 60 63 59 59 58 57
100 99 98 98 99 96 92 90 91 88 95 94 92 96 90 82 94 87 95 79 88 98 100 80 82 61 64 65 60 59 58 54 54 56 58 58 56 56 53 56 54 58 61 56
94 99 95 98 91 97 98 95 95 96 90 91 91 96 81 91 92 90 89 94 99 89 79 82 83 68 76 73 73 72 76 62 64 64 61 60 56 59 57 54 55 59 62 65
99 99 99 98 99 97 99 98 95 95 91 98 98 98 98 96 94 98 98 88 86 74 88 86 88 77 72 74 74 67 82 84 84 70 61 56 61 66 63 55 57 60 64 68
97 90 86 95 98 98 97 95 98 92 99 98 99 98 91 98 98 97 90 89 82 86 91 91 81 71 71 72 66 63 64 66 65 60 56 54 54 59 68 80 58 57 58 64
Wind_Speed
13 17 21 22 15 7 4 3 3 6 5 4 2 2 2 2 2 2 1 1 2 4 5 2 1 3 3 6 6 3 4 4 4 9 5 8 5 6 5 3 3 3 3 6
12 14 19 21 17 12 2 2 2 3 1 4 2 3 3 2 1 1 1 1 0 1 3 2 3 4 2 6 7 6 5 3 1 2 1 2 5 5 4 2 3 6 3 5
11 13 16 21 18 9 3 3 2 4 4 1 7 5 1 1 1 1 1 1 2 1 2 2 5 4 4 6 4 5 5 3 5 5 4 3 4 4 7 7 3 3 8 10
11 11 14 19 19 9 3 3 2 3 1 4 4 4 7 3 2 1 0 2 4 4 3 2 3 3 2 3 4 4 3 4 3 9 13 10 13 13 10 12 13 7 3 8
9 11 11 15 19 5 6 3 2 3 0 0 2 2 5 7 4 4 3 3 2 4 3 5 2 5 4 5 2 5 3 4 3 6 10 10 13 15 15 17 17 19 19 24
8 10 10 11 16 7 3 3 3 3 3 1 3 3 3 6 7 4 5 3 2 4 5 3 3 2 1 1 6 6 3 2 5 5 6 8 7 9 15 8 6 17 14 18
9 9 9 9 11 11 4 1 4 4 2 1 3 3 4 4 4 5 3 5 4 2 1 3 2 3 5 5 6 5 2 1 2 5 6 3 6 4 5 12 11 14 12 11
10 9 8 8 8 8 5 1 1 2 3 3 4 3 2 2 1 2 3 4 3 3 3 3 4 2 1 3 5 7 5 3 3 3 3 8 6 2 5 6 6 6 13 15
10 9 7 6 6 6 6 3 2 2 4 5 3 3 4 4 3 3 2 2 1 3 2 2 1 3 3 2 1 3 5 4 3 2 2 4 4 1 2 3 4 4 4 6
11 10 8 6 5 4 4 4 3 1 1 4 5 4 5 5 2 2 2 3 1 2 2 1 3 3 2 2 4 4 3 3 9 8 6 8 9 6 3 1 5 1 1 3
12 10 10 8 5 5 5 3 3 3 2 5 5 6 5 4 3 4 3 3 2 2 2 3 3 3 4 1 4 6 7 6 5 6 6 9 8 5 7 6 3 3 3 3
12 11 10 9 8 6 5 3 3 3 4 4 5 11 12 10 9 5 3 2 4 5 3 2 1 3 1 3 3 3 3 7 5 10 7 5 7 6 7 5 5 4 4 6
14 13 11 10 10 8 7 4 3 2 2 5 2 6 13 17 17 13 5 2 3 3 3 4 2 5 4 4 6 4 5 6 4 0 6 16 17 12 7 6 7 7 6 7
13 16 14 11 10 10 10 7 3 3 1 2 5 4 6 6 15 15 10 6 5 5 2 2 3 3 4 4 4 5 6 6 7 7 13 13 16 10 8 7 6 3 4 3
13 16 16 13 11 10 11 12 14 12 3 2 4 9 7 7 7 12 8 6 3 3 2 2 4 3 1 3 2 6 7 10 7 9 9 6 7 2 5 5 5 6 6 6
13 14 15 13 11 11 5 2 5 19 9 1 3 2 1 2 4 6 7 7 2 1 4 3 4 4 4 4 4 7 9 17 17 10 6 8 5 3 4 5 7 6 5 7
16 14 14 15 14 16 5 2 1 10 15 2 4 4 1 2 3 1 1 2 2 3 2 3 3 2 4 3 9 7 10 14 14 9 2 6 5 6 5 5 5 9 12 15
19 15 14 14 12 11 15 16 0 15 4 3 2 4 2 6 1 2 1 1 1 2 3 1 3 1 3 7 7 9 17 12 9 10 13 14 3 4 5 3 3 5 7 6
18 8 12 7 5 5 5 10 17 15 4 2 3 2 3 2 2 2 1 1 2 1 3 3 4 4 8 10 12 13 9 8 8 6 11 7 8 8 5 5 4 4 6 4
8 10 4 2 5 7 8 6 3 2 2 3 3 2 3 4 2 2 2 2 3 3 5 3 4 5 19 18 16 15 10 12 7 4 5 6 5 7 6 6 4 3 4 5
2 1 1 2 11 4 3 3 3 3 3 3 4 8 6 4 3 3 4 3 2 2 3 3 2 4 8 13 16 14 12 13 13 10 4 7 5 6 6 4 5 5 6 4
5 4 3 3 2 3 4 4 2 4 5 3 3 4 3 3 3 3 3 3 2 6 2 1 3 6 6 8 11 9 8 11 9 8 9 8 7 7 5 4 4 4 4 7
3 3 2 3 3 5 6 7 3 3 3 4 2 0 3 1 2 2 3 3 6 1 1 4 6 7 10 9 11 8 4 7 8 7 8 11 6 6 6 6 7 6 6 7
2 3 5 5 5 6 4 5 4 4 3 5 3 2 3 2 3 3 4 4 3 1 1 7 3 6 9 12 8 3 4 7 9 9 8 7 7 6 7 9 9 8 8 7
4 3 6 7 2 2 3 2 0 2 3 3 2 2 2 1 1 3 1 0 4 6 5 3 4 10 13 12 8 4 4 5 5 4 6 6 8 6 5 6 9 9 10 11
3 5 4 2 1 2 1 1 2 2 4 2 2 3 4 5 4 4 7 4 6 4 3 3 3 8 11 11 7 4 2 3 2 8 8 8 8 7 6 7 12 12 12 14
5 4 3 3 3 4 3 4 3 6 4 2 2 6 10 2 3 4 5 6 4 4 4 3 6 4 6 7 6 6 5 7 9 6 10 11 7 6 6 5 17 12 13 16
Wind_Direction
25 27 23 19 16 13 32 63 49 345 4 47 15 60 74 50 15 6 301 101 108 160 171 125 235 210 222 173 161 192 191 158 215 215 250 177 187 192 177 153 232 234 173 272
17 24 26 23 14 18 1 86 257 340 70 99 31 355 59 52 140 275 280 231 146 127 163 157 192 205 258 170 180 178 187 221 345 330 27 135 225 198 191 165 149 219 160 261
12 17 22 19 16 9 51 78 37 333 37 109 129 129 71 23 355 300 296 209 33 56 198 176 198 213 219 204 195 171 171 245 207 203 216 146 212 210 202 187 199 223 233 282
3 14 17 21 18 32 83 37 256 181 124 326 122 133 147 142 293 248 43 295 224 186 202 212 233 182 242 209 203 171 176 259 239 259 261 254 255 244 218 207 221 216 274 232
358 4 16 20 20 22 83 102 92 4 114 13 7 342 183 158 172 164 261 193 276 192 220 193 244 169 210 208 154 174 202 272 323 278 266 252 257 251 236 229 228 238 253 273
347 356 6 18 25 29 87 119 108 99 312 31 100 230 227 199 156 178 174 202 146 233 239 252 247 203 212 220 172 195 212 225 315 272 316 321 287 241 212 203 209 219 234 242
336 343 356 13 21 40 62 109 127 103 284 190 223 202 187 209 218 170 194 158 153 222 308 280 204 218 240 227 240 188 157 90 263 285 329 270 247 280 199 205 237 221 246 252
327 329 342 360 11 11 38 121 190 138 167 210 297 222 206 99 43 243 230 226 202 135 65 14 340 338 314 250 214 199 169 118 289 277 277 290 291 226 156 177 279 213 232 257
325 315 319 335 353 352 331 353 127 107 128 223 196 181 183 183 218 325 235 48 114 70 88 105 223 247 237 229 122 55 128 142 178 332 294 258 252 249 132 88 283 210 202 259
318 310 301 303 316 327 344 304 319 92 156 257 160 173 175 162 149 203 255 175 119 49 126 189 184 248 213 233 197 171 162 205 219 235 258 281 246 231 98 55 237 197 246 285
308 302 294 287 283 298 308 279 263 302 202 272 223 185 155 142 153 167 211 62 334 69 171 178 225 204 240 206 190 177 173 161 197 192 218 271 179 92 169 212 221 209 234 227
304 293 284 277 268 263 279 273 250 261 239 260 262 241 240 211 175 150 189 215 173 188 127 218 123 242 303 185 258 150 220 194 184 196 216 241 210 218 219 183 209 231 223 240
295 288 274 266 259 249 246 264 274 277 8 297 320 241 240 235 226 199 141 246 207 194 179 164 199 233 137 198 239 223 245 172 217 166 258 237 245 252 239 218 233 245 242 256
294 288 267 254 246 243 244 240 225 214 141 251 281 319 274 248 219 222 213 156 130 112 109 166 194 193 175 228 251 207 212 152 198 258 278 276 264 242 228 245 225 242 274 254
298 292 264 245 238 230 238 251 249 233 181 241 284 304 252 245 227 212 204 183 129 140 138 178 217 225 169 230 307 240 188 211 204 236 197 201 256 239 175 203 241 242 254 287
310 289 274 229 226 220 207 285 241 220 206 94 300 283 297 154 204 211 191 179 156 143 161 210 246 264 164 239 243 240 218 219 224 238 191 207 227 231 212 235 264 266 243 249
318 296 280 215 205 206 217 239 172 172 170 156 296 286 322 164 110 48 349 163 168 147 212 231 214 240 203 248 249 199 218 223 231 243 153 265 192 234 179 188 247 272 263 264
308 303 246 196 196 216 244 238 217 161 161 141 249 266 338 160 149 188 168 145 347 218 214 232 204 271 214 254 267 254 249 242 236 228 215 241 181 193 224 213 263 282 285 286
306 216 154 142 185 208 229 214 221 204 236 229 170 198 259 147 133 123 36 149 203 236 244 235 145 199 227 251 245 246 230 212 215 236 214 203 219 242 240 215 234 251 283 294
156 124 128 193 225 219 178 143 150 205 229 234 218 190 244 136 157 167 134 223 234 225 234 130 215 252 261 261 261 256 232 215 195 178 225 200 229 219 219 212 183 203 267 287
2 38 257 228 163 177 188 191 200 182 235 201 215 212 199 213 140 189 197 198 217 246 254 179 261 274 244 253 252 264 246 216 202 204 155 180 182 165 186 209 217 215 230 226
290 191 176 184 234 234 211 198 195 205 227 203 189 211 179 161 155 145 195 200 74 252 135 97 264 253 338 320 298 271 251 215 190 179 169 157 163 192 205 229 239 241 263 288
254 258 209 174 191 230 201 195 226 229 208 185 167 186 143 115 214 188 148 161 223 61 75 232 233 314 302 311 301 290 255 196 156 160 161 161 176 185 221 250 255 257 267 275
204 222 250 208 201 234 198 183 198 227 148 149 135 115 179 183 164 175 163 223 97 24 254 234 255 270 292 312 293 254 216 187 170 175 156 161 183 202 235 254 273 273 271 282
251 219 234 222 237 263 292 237 322 282 147 124 93 83 145 151 236 213 61 349 250 214 230 230 254 303 309 308 301 241 211 196 171 154 169 186 197 202 242 269 282 281 283 286
223 245 266 284 200 260 325 248 254 214 144 90 100 159 182 214 196 181 221 170 227 243 214 235 285 308 326 330 318 290 291 259 210 183 196 199 209 222 246 285 286 286 279 273
224 240 242 281 299 270 225 190 190 172 164 191 210 192 212 132 198 220 189 211 220 222 254 240 234 240 12 356 350 321 308 279 255 233 219 223 227 242 259 272 291 290 289 283